North Wilkesboro, NC

9:04 AM EST on December 15, 2019 (GMT -0500)
Wilkes County

Weather History for KUKF - August, 2019

Change the Weather History Date:

Wednesday, August 28, 2019

  Actual Average Record
Temperature  
Mean Temperature 73 °F -  
Max Temperature 84 °F 86 °F 96 °F (1987)
Min Temperature 60 °F 60 °F 45 °F (1968)
Cooling Degree Days 8    
Growing Degree Days 23 (Base 50)    
Moisture  
Dew Point 63 °F    
Average Humidity 79    
Maximum Humidity 100    
Minimum Humidity 40    
Precipitation  
Precipitation 0.01 in - - ()
Sea Level Pressure  
Sea Level Pressure 30.02 in    
Wind  
Wind Speed 2 mph (NW)    
Max Wind Speed 10 mph    
Max Gust Speed 17 mph    
Visibility 7 miles    
Events Fog    
Averages and records for this station are not official NWS values.
T = Trace of Precipitation, MM = Missing Value Source: NWS Daily Summary

Daily Weather History Graph

Daily Weather History Graph

Search for Another Location

Airport or City:

Astronomy

Aug. 28, 2019 Rise Set
Actual Time 6:52 AM EDT 7:58 PM EDT
Civil Twilight 6:26 AM EDT 8:24 PM EDT
Nautical Twilight 5:54 AM EDT 8:55 PM EDT
Astronomical Twilight 5:21 AM EDT 9:28 PM EDT
Moon 4:28 AM EDT (8/28) 7:04 PM EDT (8/28)
Length of Visible Light 13h 58m
Length of Day
13h 05m
Waning Crescent, 5% of the Moon is Illuminated
Aug 28
Waning Crescent
Aug 30
New
Sep 5
First Quarter
Sep 14
Full
Sep 21
Last Quarter

Hourly Weather History & Observations

Time (EDT) Temp. Heat Index Dew Point Humidity Pressure Visibility Wind Dir Wind Speed Gust Speed Precip Events Conditions
12:15 AM 66.2 °F - 66.2 °F 100% 30.06 in 4.0 mi Calm Calm - N/A   Overcast
12:35 AM 66.2 °F - 66.2 °F 100% 30.05 in 5.0 mi Calm Calm - N/A   Overcast
12:55 AM 66.2 °F - 66.2 °F 100% 30.05 in 7.0 mi Calm Calm - N/A   Overcast
1:15 AM 66.2 °F - 66.2 °F 100% 30.04 in 7.0 mi Calm Calm - N/A   Overcast
1:35 AM 66.2 °F - 66.2 °F 100% 30.04 in 4.0 mi Calm Calm - N/A   Overcast
1:55 AM 66.2 °F - 66.2 °F 100% 30.04 in 4.0 mi Calm Calm - N/A   Overcast
2:15 AM 66.2 °F - 66.2 °F 100% 30.03 in 5.0 mi Calm Calm - N/A   Overcast
2:35 AM 64.4 °F - 64.4 °F 100% 30.03 in 3.0 mi Calm Calm - N/A   Overcast
2:55 AM 64.4 °F - 64.4 °F 100% 30.01 in 4.0 mi Calm Calm - N/A   Overcast
3:15 AM 64.4 °F - 64.4 °F 100% 30.01 in 2.0 mi Calm Calm - N/A   Overcast
3:35 AM 64.4 °F - 64.4 °F 100% 30.00 in 3.0 mi Calm Calm - N/A   Overcast
3:55 AM 64.4 °F - 64.4 °F 100% 30.00 in 5.0 mi Calm Calm - N/A   Overcast
4:15 AM 64.4 °F - 64.4 °F 100% 30.00 in 0.8 mi Calm Calm - N/A   Overcast
4:35 AM 64.4 °F - 64.4 °F 100% 30.00 in 2.5 mi Calm Calm - N/A   Overcast
4:55 AM 64.4 °F - 64.4 °F 100% 30.00 in 0.2 mi SW 3.5 mph - N/A Fog Fog
5:15 AM 64.4 °F - 64.4 °F 100% 30.01 in 0.2 mi Calm Calm - N/A Fog Fog
5:35 AM 64.4 °F - 64.4 °F 100% 30.01 in 0.5 mi Calm Calm - N/A Fog Fog
5:55 AM 64.4 °F - 64.4 °F 100% 30.01 in 0.5 mi Calm Calm - N/A Fog Fog
6:15 AM 64.4 °F - 64.4 °F 100% 30.01 in 1.8 mi Calm Calm - N/A   Overcast
6:35 AM 64.4 °F - 64.4 °F 100% 30.02 in 0.5 mi Calm Calm - N/A Fog Fog
6:55 AM 64.4 °F - 64.4 °F 100% 30.02 in 0.2 mi Calm Calm - N/A Fog Fog
7:15 AM 64.4 °F - 64.4 °F 100% 30.02 in 0.2 mi Calm Calm - N/A Fog Fog
7:35 AM 64.4 °F - 64.4 °F 100% 30.02 in 0.2 mi Calm Calm - N/A Fog Fog
7:55 AM 64.4 °F - 64.4 °F 100% 30.02 in 0.2 mi SW 3.5 mph - N/A Fog Fog
8:15 AM 64.4 °F - 64.4 °F 100% 30.03 in 0.2 mi Calm Calm - N/A Fog Fog
8:35 AM 64.4 °F - 64.4 °F 100% 30.03 in 0.5 mi Calm Calm - N/A Fog Fog
8:55 AM 64.4 °F - 64.4 °F 100% 30.03 in 5.0 mi Calm Calm - N/A   Overcast
9:15 AM 66.2 °F - 66.2 °F 100% 30.02 in 10.0 mi Calm Calm - N/A   Overcast
9:35 AM 68.0 °F - 68.0 °F 100% 30.02 in 10.0 mi Calm Calm - N/A   Mostly Cloudy
9:55 AM 69.8 °F - 69.8 °F 100% 30.02 in 10.0 mi SW 3.5 mph - N/A   Scattered Clouds
10:15 AM 71.6 °F - 69.8 °F 94% 30.03 in 10.0 mi SW 3.5 mph - N/A   Mostly Cloudy
10:35 AM 71.6 °F - 69.8 °F 94% 30.03 in 10.0 mi Calm Calm - N/A   Mostly Cloudy
10:55 AM 73.4 °F - 69.8 °F 88% 30.03 in 10.0 mi Calm Calm - N/A   Mostly Cloudy
11:15 AM 77.0 °F - 69.8 °F 78% 30.03 in 10.0 mi SW 3.5 mph - N/A   Scattered Clouds
11:35 AM 77.0 °F - 69.8 °F 78% 30.02 in 10.0 mi Calm Calm - N/A   Scattered Clouds
11:55 AM 78.8 °F - 69.8 °F 74% 30.02 in 10.0 mi NE 3.5 mph - N/A   Mostly Cloudy
12:15 PM 78.8 °F - 69.8 °F 74% 30.02 in 10.0 mi North 4.6 mph - N/A   Mostly Cloudy
12:35 PM 80.6 °F 83.2 °F 68.0 °F 65% 30.01 in 10.0 mi NE 3.5 mph - N/A   Scattered Clouds
12:55 PM 80.6 °F 83.2 °F 68.0 °F 65% 30.01 in 10.0 mi Calm Calm - N/A   Mostly Cloudy
1:15 PM 80.6 °F 82.7 °F 66.2 °F 61% 30.01 in 10.0 mi WNW 3.5 mph - N/A   Mostly Cloudy
1:35 PM 82.4 °F 83.9 °F 64.4 °F 54% 30.01 in 10.0 mi NW 5.8 mph - N/A   Overcast
1:55 PM 80.6 °F 82.3 °F 64.4 °F 58% 30.00 in 10.0 mi NNW 5.8 mph - N/A   Scattered Clouds
2:15 PM 82.4 °F 83.9 °F 64.4 °F 54% 30.00 in 10.0 mi WNW 8.1 mph - N/A   Clear
2:35 PM 82.4 °F 83.4 °F 62.6 °F 51% 29.99 in 10.0 mi WNW 8.1 mph - N/A   Scattered Clouds
2:55 PM 82.4 °F 83.4 °F 62.6 °F 51% 30.00 in 10.0 mi NNW 6.9 mph - N/A   Scattered Clouds
3:15 PM 84.2 °F 83.8 °F 59.0 °F 42% 29.99 in 10.0 mi West 6.9 mph - N/A   Clear
3:35 PM 84.2 °F 83.8 °F 59.0 °F 42% 29.99 in 10.0 mi WNW 10.4 mph 17.3 mph N/A   Clear
3:55 PM 84.2 °F 83.5 °F 57.2 °F 40% 29.99 in 10.0 mi NW 8.1 mph - N/A   Clear
4:15 PM 84.2 °F 83.5 °F 57.2 °F 40% 29.99 in 10.0 mi NW 6.9 mph 17.3 mph N/A   Clear
4:35 PM 82.4 °F 82.5 °F 59.0 °F 45% 29.99 in 10.0 mi WNW 6.9 mph - N/A   Clear
4:55 PM 82.4 °F 82.5 °F 59.0 °F 45% 29.99 in 10.0 mi NW 6.9 mph - N/A   Clear
5:15 PM 82.4 °F 82.5 °F 59.0 °F 45% 29.99 in 10.0 mi NW 6.9 mph - N/A   Clear
5:35 PM 82.4 °F 82.5 °F 59.0 °F 45% 29.99 in 10.0 mi NW 5.8 mph - N/A   Clear
5:55 PM 82.4 °F 82.5 °F 59.0 °F 45% 30.00 in 10.0 mi NNW 10.4 mph - N/A   Clear
6:15 PM 80.6 °F 80.5 °F 55.4 °F 42% 30.00 in 10.0 mi WNW 6.9 mph - N/A   Clear
6:35 PM 80.6 °F 80.5 °F 55.4 °F 42% 30.00 in 10.0 mi NW 3.5 mph - N/A   Clear
6:55 PM 78.8 °F - 59.0 °F 51% 30.00 in 10.0 mi Calm Calm - N/A   Clear
7:15 PM 78.8 °F - 57.2 °F 47% 30.01 in 10.0 mi NNW 5.8 mph - N/A   Clear
7:35 PM 77.0 °F - 57.2 °F 50% 30.01 in 10.0 mi NNW 3.5 mph - N/A   Clear
8:15 PM 71.6 °F - 59.0 °F 64% 30.02 in 10.0 mi Calm Calm - N/A   Clear
8:35 PM 68.0 °F - 60.8 °F 78% 30.03 in 10.0 mi WNW 4.6 mph - N/A   Clear
8:55 PM 71.6 °F - 59.0 °F 64% 30.03 in 10.0 mi NW 4.6 mph - N/A   Clear
9:15 PM 69.8 °F - 57.2 °F 64% 30.03 in 10.0 mi NNW 3.5 mph - N/A   Clear
9:35 PM 68.0 °F - 59.0 °F 73% 30.04 in 10.0 mi NW 3.5 mph - N/A   Clear
9:55 PM 68.0 °F - 59.0 °F 73% 30.05 in 10.0 mi NW 5.8 mph - N/A   Clear
10:15 PM 68.0 °F - 59.0 °F 73% 30.05 in 10.0 mi NW 3.5 mph - N/A   Clear
10:35 PM 62.6 °F - 62.6 °F 100% 30.06 in 10.0 mi WNW 4.6 mph - N/A   Clear
10:55 PM 64.4 °F - 59.0 °F 83% 30.07 in 10.0 mi WNW 6.9 mph - N/A   Clear
11:15 PM 64.4 °F - 59.0 °F 83% 30.07 in 10.0 mi WNW 5.8 mph - N/A   Clear
11:35 PM 64.4 °F - 59.0 °F 83% 30.07 in 10.0 mi Calm Calm - N/A   Clear
11:55 PM 60.8 °F - 60.8 °F 100% 30.07 in 10.0 mi Calm Calm - 0.01 in   Clear